{"data":{"norad_id":65994,"intl_designator":"2025-230W","name":"SDA_1684","alt_names":[],"object_type":"PAYLOAD","status":"ACTIVE","operator":null,"country":"US","launch_date":"2025-10-15","launch_site_code":"AFWTR","launch_vehicle":null,"mission":null,"orbit_class":"UNKNOWN","rcs_meters":null,"size_class":null,"mass_kg":null,"dimensions":null,"purposes":[],"wikipedia_slug":null,"has_3d_model":false,"image_url":null,"decayed_at":null,"tle_current":{"epoch":"2026-05-25T05:32:12.093792Z","epoch_age_seconds":58610,"freshness":"FRESH","line1":"1 65994U 25230W   26145.23069553  .00000063  00000+0  49554-4 0  9995","line2":"2 65994  81.3017 233.4630 0000926 125.6139 234.5102 13.79430359 30600","mean_motion":13.79430359,"eccentricity":9.26e-5,"inclination_deg":81.3017,"raan_deg":233.463,"arg_perigee_deg":125.6139,"mean_anomaly_deg":234.5102,"bstar":4.9554e-5,"rev_number":3060,"period_min":104.39091691761,"perigee_km":965.22780799152,"apogee_km":966.58792510081,"semimajor_km":7344.0448665462,"source":"CELESTRAK","updated_at":"2026-05-25T13:38:05.882498Z"}}}